"Datum/tijd (MEZT/MET)";"astronomisch [cm]"
2024-04-15 01:00;-45
2024-04-15 01:10;-31
2024-04-15 01:20;-17
2024-04-15 01:30;-5
2024-04-15 01:40;6
2024-04-15 01:50;16
2024-04-15 02:00;25
2024-04-15 02:10;34
2024-04-15 02:20;42
2024-04-15 02:30;50
2024-04-15 02:40;57
2024-04-15 02:50;64
2024-04-15 03:00;70
2024-04-15 03:10;76
2024-04-15 03:20;81
2024-04-15 03:30;86
2024-04-15 03:40;91
2024-04-15 03:50;95
2024-04-15 04:00;99
2024-04-15 04:10;103
2024-04-15 04:20;106
2024-04-15 04:30;109
2024-04-15 04:40;111
2024-04-15 04:50;113
2024-04-15 05:00;114
2024-04-15 05:10;114
2024-04-15 05:20;114
2024-04-15 05:30;113
2024-04-15 05:40;111
2024-04-15 05:50;108
2024-04-15 06:00;104
2024-04-15 06:10;99
2024-04-15 06:20;94
2024-04-15 06:30;88
2024-04-15 06:40;81
2024-04-15 06:50;74
2024-04-15 07:00;66
2024-04-15 07:10;58
2024-04-15 07:20;49
2024-04-15 07:30;40
2024-04-15 07:40;31
2024-04-15 07:50;22
2024-04-15 08:00;13
2024-04-15 08:10;3
2024-04-15 08:20;-7
2024-04-15 08:30;-17
2024-04-15 08:40;-27
2024-04-15 08:50;-38
2024-04-15 09:00;-49
2024-04-15 09:10;-61
2024-04-15 09:20;-72
2024-04-15 09:30;-84
2024-04-15 09:40;-95
2024-04-15 09:50;-106
2024-04-15 10:00;-116
2024-04-15 10:10;-126
2024-04-15 10:20;-134
2024-04-15 10:30;-141
2024-04-15 10:40;-147
2024-04-15 10:50;-151
2024-04-15 11:00;-154
2024-04-15 11:10;-155
2024-04-15 11:20;-154
2024-04-15 11:30;-151
2024-04-15 11:40;-146
2024-04-15 11:50;-138
2024-04-15 12:00;-129
2024-04-15 12:10;-118
2024-04-15 12:20;-105
2024-04-15 12:30;-91
2024-04-15 12:40;-76
2024-04-15 12:50;-61
2024-04-15 13:00;-46
2024-04-15 13:10;-31
2024-04-15 13:20;-18
2024-04-15 13:30;-5
2024-04-15 13:40;7
2024-04-15 13:50;18
2024-04-15 14:00;28
2024-04-15 14:10;38
2024-04-15 14:20;47
2024-04-15 14:30;55
2024-04-15 14:40;63
2024-04-15 14:50;70
2024-04-15 15:00;77
2024-04-15 15:10;83
2024-04-15 15:20;89
2024-04-15 15:30;94
2024-04-15 15:40;100
2024-04-15 15:50;104
2024-04-15 16:00;109
2024-04-15 16:10;113
2024-04-15 16:20;117
2024-04-15 16:30;120
2024-04-15 16:40;123
2024-04-15 16:50;126
2024-04-15 17:00;128
2024-04-15 17:10;130
2024-04-15 17:20;131
2024-04-15 17:30;131
2024-04-15 17:40;131
2024-04-15 17:50;129
2024-04-15 18:00;126
2024-04-15 18:10;123
2024-04-15 18:20;118
2024-04-15 18:30;113
2024-04-15 18:40;107
2024-04-15 18:50;100
2024-04-15 19:00;92
2024-04-15 19:10;84
2024-04-15 19:20;76
2024-04-15 19:30;67
2024-04-15 19:40;57
2024-04-15 19:50;48
2024-04-15 20:00;38
2024-04-15 20:10;28
2024-04-15 20:20;19
2024-04-15 20:30;9
2024-04-15 20:40;-1
2024-04-15 20:50;-11
2024-04-15 21:00;-22
2024-04-15 21:10;-32
2024-04-15 21:20;-43
2024-04-15 21:30;-54
2024-04-15 21:40;-66
2024-04-15 21:50;-78
2024-04-15 22:00;-90
2024-04-15 22:10;-101
2024-04-15 22:20;-112
2024-04-15 22:30;-123
2024-04-15 22:40;-133
2024-04-15 22:50;-142
2024-04-15 23:00;-149
2024-04-15 23:10;-155
2024-04-15 23:20;-160
2024-04-15 23:30;-162
2024-04-15 23:40;-163
2024-04-15 23:50;-162
2024-04-16 00:00;-160
2024-04-16 00:10;-155
2024-04-16 00:20;-148
2024-04-16 00:30;-140
2024-04-16 00:40;-131
2024-04-16 00:50;-120
2024-04-16 01:00;-108
2024-04-16 01:10;-96
2024-04-16 01:20;-83
2024-04-16 01:30;-71
2024-04-16 01:40;-59
2024-04-16 01:50;-47
2024-04-16 02:00;-35
2024-04-16 02:10;-24
2024-04-16 02:20;-14
2024-04-16 02:30;-4
2024-04-16 02:40;5
2024-04-16 02:50;13
2024-04-16 03:00;21
2024-04-16 03:10;29
2024-04-16 03:20;36
2024-04-16 03:30;43
2024-04-16 03:40;49
2024-04-16 03:50;55
2024-04-16 04:00;60
2024-04-16 04:10;66
2024-04-16 04:20;70
2024-04-16 04:30;75
2024-04-16 04:40;79
2024-04-16 04:50;83
2024-04-16 05:00;86
2024-04-16 05:10;89
2024-04-16 05:20;92
2024-04-16 05:30;94
2024-04-16 05:40;96
2024-04-16 05:50;97
2024-04-16 06:00;97
2024-04-16 06:10;97
2024-04-16 06:20;96
2024-04-16 06:30;94
2024-04-16 06:40;92
2024-04-16 06:50;88
2024-04-16 07:00;84
2024-04-16 07:10;80
2024-04-16 07:20;74
2024-04-16 07:30;69
2024-04-16 07:40;62
2024-04-16 07:50;55
2024-04-16 08:00;48
2024-04-16 08:10;41
2024-04-16 08:20;33
2024-04-16 08:30;25
2024-04-16 08:40;16
2024-04-16 08:50;8
2024-04-16 09:00;-1
2024-04-16 09:10;-10
2024-04-16 09:20;-20
2024-04-16 09:30;-30
2024-04-16 09:40;-40
2024-04-16 09:50;-50
2024-04-16 10:00;-60
2024-04-16 10:10;-70
2024-04-16 10:20;-79
2024-04-16 10:30;-89
2024-04-16 10:40;-98
2024-04-16 10:50;-106
2024-04-16 11:00;-113
2024-04-16 11:10;-119
2024-04-16 11:20;-125
2024-04-16 11:30;-128
2024-04-16 11:40;-131
2024-04-16 11:50;-132
2024-04-16 12:00;-131
2024-04-16 12:10;-129
2024-04-16 12:20;-125
2024-04-16 12:30;-120
2024-04-16 12:40;-114
2024-04-16 12:50;-106
2024-04-16 13:00;-97
2024-04-16 13:10;-88
2024-04-16 13:20;-77
2024-04-16 13:30;-67
2024-04-16 13:40;-55
2024-04-16 13:50;-44
2024-04-16 14:00;-33
2024-04-16 14:10;-22
2024-04-16 14:20;-12
2024-04-16 14:30;-2
2024-04-16 14:40;8
2024-04-16 14:50;17
2024-04-16 15:00;26
2024-04-16 15:10;34
2024-04-16 15:20;42
2024-04-16 15:30;50
2024-04-16 15:40;57
2024-04-16 15:50;64
2024-04-16 16:00;70
2024-04-16 16:10;76
2024-04-16 16:20;82
2024-04-16 16:30;87
2024-04-16 16:40;92
2024-04-16 16:50;97
2024-04-16 17:00;101
2024-04-16 17:10;105
2024-04-16 17:20;109
2024-04-16 17:30;112
2024-04-16 17:40;115
2024-04-16 17:50;118
2024-04-16 18:00;120
2024-04-16 18:10;121
2024-04-16 18:20;122
2024-04-16 18:30;121
2024-04-16 18:40;120
2024-04-16 18:50;118
2024-04-16 19:00;115
2024-04-16 19:10;112
2024-04-16 19:20;107
2024-04-16 19:30;102
2024-04-16 19:40;96
2024-04-16 19:50;90
2024-04-16 20:00;83
2024-04-16 20:10;76
2024-04-16 20:20;68
2024-04-16 20:30;60
2024-04-16 20:40;52
2024-04-16 20:50;43
2024-04-16 21:00;35
2024-04-16 21:10;25
2024-04-16 21:20;16
2024-04-16 21:30;7
2024-04-16 21:40;-3
2024-04-16 21:50;-12
2024-04-16 22:00;-22
2024-04-16 22:10;-32
2024-04-16 22:20;-43
2024-04-16 22:30;-53
2024-04-16 22:40;-63
2024-04-16 22:50;-74
2024-04-16 23:00;-84
2024-04-16 23:10;-94
2024-04-16 23:20;-103
2024-04-16 23:30;-112
2024-04-16 23:40;-119
2024-04-16 23:50;-125
2024-04-17 00:00;-130
2024-04-17 00:10;-134
2024-04-17 00:20;-137
2024-04-17 00:30;-138
2024-04-17 00:40;-138
2024-04-17 00:50;-136
2024-04-17 01:00;-133
2024-04-17 01:10;-130
2024-04-17 01:20;-125
2024-04-17 01:30;-119
2024-04-17 01:40;-112
2024-04-17 01:50;-105
2024-04-17 02:00;-97
2024-04-17 02:10;-89
2024-04-17 02:20;-80
2024-04-17 02:30;-71
2024-04-17 02:40;-62
2024-04-17 02:50;-53
2024-04-17 03:00;-44
2024-04-17 03:10;-35
2024-04-17 03:20;-26
2024-04-17 03:30;-18
2024-04-17 03:40;-10
2024-04-17 03:50;-2
2024-04-17 04:00;5
2024-04-17 04:10;13
2024-04-17 04:20;20
2024-04-17 04:30;27
2024-04-17 04:40;33
2024-04-17 04:50;39
2024-04-17 05:00;45
2024-04-17 05:10;51
2024-04-17 05:20;56
2024-04-17 05:30;60
2024-04-17 05:40;65
2024-04-17 05:50;69
2024-04-17 06:00;72
2024-04-17 06:10;75
2024-04-17 06:20;78
2024-04-17 06:30;81
2024-04-17 06:40;83
2024-04-17 06:50;84
2024-04-17 07:00;84
2024-04-17 07:10;84
2024-04-17 07:20;84
2024-04-17 07:30;82
2024-04-17 07:40;80
2024-04-17 07:50;77
2024-04-17 08:00;74
2024-04-17 08:10;71
2024-04-17 08:20;66
2024-04-17 08:30;62
2024-04-17 08:40;57
2024-04-17 08:50;51
2024-04-17 09:00;45
2024-04-17 09:10;39
2024-04-17 09:20;32
2024-04-17 09:30;25
2024-04-17 09:40;17
2024-04-17 09:50;9
2024-04-17 10:00;0
2024-04-17 10:10;-8
2024-04-17 10:20;-17
2024-04-17 10:30;-26
2024-04-17 10:40;-35
2024-04-17 10:50;-44
2024-04-17 11:00;-52
2024-04-17 11:10;-61
2024-04-17 11:20;-69
2024-04-17 11:30;-77
2024-04-17 11:40;-84
2024-04-17 11:50;-90
2024-04-17 12:00;-96
2024-04-17 12:10;-100
2024-04-17 12:20;-104
2024-04-17 12:30;-106
2024-04-17 12:40;-108
2024-04-17 12:50;-108
2024-04-17 13:00;-107
2024-04-17 13:10;-106
2024-04-17 13:20;-103
2024-04-17 13:30;-100
2024-04-17 13:40;-96
2024-04-17 13:50;-92
2024-04-17 14:00;-86
2024-04-17 14:10;-80
2024-04-17 14:20;-74
2024-04-17 14:30;-67
2024-04-17 14:40;-59
2024-04-17 14:50;-51
2024-04-17 15:00;-42
2024-04-17 15:10;-34
2024-04-17 15:20;-25
2024-04-17 15:30;-17
2024-04-17 15:40;-8
2024-04-17 15:50;0
2024-04-17 16:00;9
2024-04-17 16:10;17
2024-04-17 16:20;25
2024-04-17 16:30;33
2024-04-17 16:40;40
2024-04-17 16:50;48
2024-04-17 17:00;55
2024-04-17 17:10;61
2024-04-17 17:20;68
2024-04-17 17:30;74
2024-04-17 17:40;80
2024-04-17 17:50;85
2024-04-17 18:00;90
2024-04-17 18:10;95
2024-04-17 18:20;100
2024-04-17 18:30;104
2024-04-17 18:40;107
2024-04-17 18:50;110
2024-04-17 19:00;112
2024-04-17 19:10;114
2024-04-17 19:20;115
2024-04-17 19:30;115
2024-04-17 19:40;114
2024-04-17 19:50;113
2024-04-17 20:00;111
2024-04-17 20:10;108
2024-04-17 20:20;105
2024-04-17 20:30;101
2024-04-17 20:40;97
2024-04-17 20:50;92
2024-04-17 21:00;87
2024-04-17 21:10;81
2024-04-17 21:20;75
2024-04-17 21:30;68
2024-04-17 21:40;60
2024-04-17 21:50;53
2024-04-17 22:00;44
2024-04-17 22:10;36
2024-04-17 22:20;27
2024-04-17 22:30;18
2024-04-17 22:40;9
2024-04-17 22:50;0
2024-04-17 23:00;-9
2024-04-17 23:10;-19
2024-04-17 23:20;-28
2024-04-17 23:30;-38
2024-04-17 23:40;-48
2024-04-17 23:50;-57
2024-04-18 00:00;-67
2024-04-18 00:10;-75
2024-04-18 00:20;-84
2024-04-18 00:30;-91
2024-04-18 00:40;-98
2024-04-18 00:50;-104
2024-04-18 01:00;-109
2024-04-18 01:10;-113
2024-04-18 01:20;-117
2024-04-18 01:30;-119
2024-04-18 01:40;-121
2024-04-18 01:50;-122
2024-04-18 02:00;-122
2024-04-18 02:10;-122
2024-04-18 02:20;-120
2024-04-18 02:30;-118
2024-04-18 02:40;-115
2024-04-18 02:50;-111
2024-04-18 03:00;-106
2024-04-18 03:10;-100
2024-04-18 03:20;-94
2024-04-18 03:30;-87
2024-04-18 03:40;-80
2024-04-18 03:50;-73
2024-04-18 04:00;-65
2024-04-18 04:10;-57
2024-04-18 04:20;-49
2024-04-18 04:30;-41
2024-04-18 04:40;-33
2024-04-18 04:50;-24
2024-04-18 05:00;-16
2024-04-18 05:10;-7
2024-04-18 05:20;1
2024-04-18 05:30;10
2024-04-18 05:40;17
2024-04-18 05:50;25
2024-04-18 06:00;31
2024-04-18 06:10;38
2024-04-18 06:20;44
2024-04-18 06:30;49
2024-04-18 06:40;54
2024-04-18 06:50;59
2024-04-18 07:00;64
2024-04-18 07:10;68
2024-04-18 07:20;71
2024-04-18 07:30;74
2024-04-18 07:40;77
2024-04-18 07:50;78
2024-04-18 08:00;80
2024-04-18 08:10;80
2024-04-18 08:20;80
2024-04-18 08:30;80
2024-04-18 08:40;79
2024-04-18 08:50;78
2024-04-18 09:00;77
2024-04-18 09:10;75
2024-04-18 09:20;72
2024-04-18 09:30;69
2024-04-18 09:40;66
2024-04-18 09:50;61
2024-04-18 10:00;56
2024-04-18 10:10;51
2024-04-18 10:20;44
2024-04-18 10:30;37
2024-04-18 10:40;30
2024-04-18 10:50;23
2024-04-18 11:00;15
2024-04-18 11:10;7
2024-04-18 11:20;-1
2024-04-18 11:30;-9
2024-04-18 11:40;-17
2024-04-18 11:50;-25
2024-04-18 12:00;-33
2024-04-18 12:10;-41
2024-04-18 12:20;-49
2024-04-18 12:30;-56
2024-04-18 12:40;-63
2024-04-18 12:50;-69
2024-04-18 13:00;-75
2024-04-18 13:10;-80
2024-04-18 13:20;-84
2024-04-18 13:30;-88
2024-04-18 13:40;-91
2024-04-18 13:50;-94
2024-04-18 14:00;-96
2024-04-18 14:10;-98
2024-04-18 14:20;-99
2024-04-18 14:30;-99
2024-04-18 14:40;-99
2024-04-18 14:50;-98
2024-04-18 15:00;-96
2024-04-18 15:10;-93
2024-04-18 15:20;-89
2024-04-18 15:30;-84
2024-04-18 15:40;-79
2024-04-18 15:50;-72
2024-04-18 16:00;-65
2024-04-18 16:10;-58
2024-04-18 16:20;-50
2024-04-18 16:30;-41
2024-04-18 16:40;-33
2024-04-18 16:50;-24
2024-04-18 17:00;-15
2024-04-18 17:10;-5
2024-04-18 17:20;4
2024-04-18 17:30;14
2024-04-18 17:40;23
2024-04-18 17:50;32
2024-04-18 18:00;41
2024-04-18 18:10;49
2024-04-18 18:20;57
2024-04-18 18:30;65
2024-04-18 18:40;71
2024-04-18 18:50;78
2024-04-18 19:00;84
2024-04-18 19:10;90
2024-04-18 19:20;95
2024-04-18 19:30;99
2024-04-18 19:40;104
2024-04-18 19:50;107
2024-04-18 20:00;110
2024-04-18 20:10;112
2024-04-18 20:20;114
2024-04-18 20:30;115
2024-04-18 20:40;115
2024-04-18 20:50;115
2024-04-18 21:00;115
2024-04-18 21:10;114
2024-04-18 21:20;112
2024-04-18 21:30;110
2024-04-18 21:40;108
2024-04-18 21:50;104
2024-04-18 22:00;100
2024-04-18 22:10;95
2024-04-18 22:20;90
2024-04-18 22:30;84
2024-04-18 22:40;77
2024-04-18 22:50;69
2024-04-18 23:00;62
2024-04-18 23:10;54
2024-04-18 23:20;45
2024-04-18 23:30;37
2024-04-18 23:40;28
2024-04-18 23:50;19
2024-04-19 00:00;10
2024-04-19 00:10;0
2024-04-19 00:20;-9
2024-04-19 00:30;-19
2024-04-19 00:40;-29
2024-04-19 00:50;-39
2024-04-19 01:00;-48
2024-04-19 01:10;-58
2024-04-19 01:20;-67
2024-04-19 01:30;-75
2024-04-19 01:40;-83
2024-04-19 01:50;-90
2024-04-19 02:00;-98
2024-04-19 02:10;-104
2024-04-19 02:20;-110
2024-04-19 02:30;-116
2024-04-19 02:40;-121
2024-04-19 02:50;-125
2024-04-19 03:00;-129
2024-04-19 03:10;-131
2024-04-19 03:20;-132
2024-04-19 03:30;-133
2024-04-19 03:40;-132
2024-04-19 03:50;-129
2024-04-19 04:00;-126
2024-04-19 04:10;-122
2024-04-19 04:20;-117
2024-04-19 04:30;-112
2024-04-19 04:40;-105
2024-04-19 04:50;-98
2024-04-19 05:00;-90
2024-04-19 05:10;-81
2024-04-19 05:20;-71
2024-04-19 05:30;-61
2024-04-19 05:40;-50
2024-04-19 05:50;-40
2024-04-19 06:00;-29
2024-04-19 06:10;-18
2024-04-19 06:20;-8
2024-04-19 06:30;2
2024-04-19 06:40;11
2024-04-19 06:50;19
2024-04-19 07:00;27
2024-04-19 07:10;34
2024-04-19 07:20;41
2024-04-19 07:30;47
2024-04-19 07:40;53
2024-04-19 07:50;59
2024-04-19 08:00;64
2024-04-19 08:10;69
2024-04-19 08:20;73
2024-04-19 08:30;76
2024-04-19 08:40;79
2024-04-19 08:50;82
2024-04-19 09:00;84
2024-04-19 09:10;85
2024-04-19 09:20;87
2024-04-19 09:30;88
2024-04-19 09:40;89
2024-04-19 09:50;89
2024-04-19 10:00;89
2024-04-19 10:10;89
2024-04-19 10:20;87
2024-04-19 10:30;85
2024-04-19 10:40;82
2024-04-19 10:50;78
2024-04-19 11:00;74
2024-04-19 11:10;68
2024-04-19 11:20;62
2024-04-19 11:30;56
2024-04-19 11:40;49
2024-04-19 11:50;42
2024-04-19 12:00;34
2024-04-19 12:10;26
2024-04-19 12:20;18
2024-04-19 12:30;10
2024-04-19 12:40;2
2024-04-19 12:50;-7
2024-04-19 13:00;-16
2024-04-19 13:10;-24
2024-04-19 13:20;-33
2024-04-19 13:30;-41
2024-04-19 13:40;-49
2024-04-19 13:50;-56
2024-04-19 14:00;-64
2024-04-19 14:10;-71
2024-04-19 14:20;-77
2024-04-19 14:30;-84
2024-04-19 14:40;-90
2024-04-19 14:50;-96
2024-04-19 15:00;-102
2024-04-19 15:10;-107
2024-04-19 15:20;-111
2024-04-19 15:30;-114
2024-04-19 15:40;-117
2024-04-19 15:50;-118
2024-04-19 16:00;-117
2024-04-19 16:10;-116
2024-04-19 16:20;-113
2024-04-19 16:30;-109
2024-04-19 16:40;-104
2024-04-19 16:50;-98
2024-04-19 17:00;-90
2024-04-19 17:10;-82
2024-04-19 17:20;-73
2024-04-19 17:30;-63
2024-04-19 17:40;-53
2024-04-19 17:50;-42
2024-04-19 18:00;-30
2024-04-19 18:10;-18
2024-04-19 18:20;-6
2024-04-19 18:30;5
2024-04-19 18:40;17
2024-04-19 18:50;27
2024-04-19 19:00;38
2024-04-19 19:10;47
2024-04-19 19:20;56
2024-04-19 19:30;64
2024-04-19 19:40;72
2024-04-19 19:50;79
2024-04-19 20:00;86
2024-04-19 20:10;92
2024-04-19 20:20;97
2024-04-19 20:30;102
2024-04-19 20:40;107
2024-04-19 20:50;111
2024-04-19 21:00;114
2024-04-19 21:10;117
2024-04-19 21:20;119
2024-04-19 21:30;122
2024-04-19 21:40;123
2024-04-19 21:50;124
2024-04-19 22:00;125
2024-04-19 22:10;125
2024-04-19 22:20;125
2024-04-19 22:30;124
2024-04-19 22:40;122
2024-04-19 22:50;119
2024-04-19 23:00;115
2024-04-19 23:10;110
2024-04-19 23:20;105
2024-04-19 23:30;98
2024-04-19 23:40;92
2024-04-19 23:50;84
2024-04-20 00:00;77
2024-04-20 00:10;68
2024-04-20 00:20;60
2024-04-20 00:30;51
2024-04-20 00:40;42
2024-04-20 00:50;32
2024-04-20 01:00;23
2024-04-20 01:10;12
2024-04-20 01:20;2
2024-04-20 01:30;-9
2024-04-20 01:40;-20
2024-04-20 01:50;-30
2024-04-20 02:00;-41
2024-04-20 02:10;-51
2024-04-20 02:20;-62
2024-04-20 02:30;-72
2024-04-20 02:40;-82
2024-04-20 02:50;-92
2024-04-20 03:00;-102
2024-04-20 03:10;-111
2024-04-20 03:20;-120
2024-04-20 03:30;-128
2024-04-20 03:40;-135
2024-04-20 03:50;-141
2024-04-20 04:00;-146
2024-04-20 04:10;-149
2024-04-20 04:20;-152
2024-04-20 04:30;-153
2024-04-20 04:40;-152
2024-04-20 04:50;-151
2024-04-20 05:00;-148
2024-04-20 05:10;-143
2024-04-20 05:20;-138
2024-04-20 05:30;-130
2024-04-20 05:40;-122
2024-04-20 05:50;-112
2024-04-20 06:00;-101
2024-04-20 06:10;-89
2024-04-20 06:20;-77
2024-04-20 06:30;-64
2024-04-20 06:40;-51
2024-04-20 06:50;-38
2024-04-20 07:00;-25
2024-04-20 07:10;-13
2024-04-20 07:20;-2
2024-04-20 07:30;8
2024-04-20 07:40;18
2024-04-20 07:50;27
2024-04-20 08:00;35
2024-04-20 08:10;42
2024-04-20 08:20;49
2024-04-20 08:30;56
2024-04-20 08:40;62
2024-04-20 08:50;68
2024-04-20 09:00;73
2024-04-20 09:10;78
2024-04-20 09:20;82
2024-04-20 09:30;86
2024-04-20 09:40;89
2024-04-20 09:50;92
2024-04-20 10:00;95
2024-04-20 10:10;98
2024-04-20 10:20;100
2024-04-20 10:30;102
2024-04-20 10:40;104
2024-04-20 10:50;105
2024-04-20 11:00;105
2024-04-20 11:10;105
2024-04-20 11:20;103
2024-04-20 11:30;101
2024-04-20 11:40;98
2024-04-20 11:50;93
2024-04-20 12:00;88
2024-04-20 12:10;82
2024-04-20 12:20;76
2024-04-20 12:30;69
2024-04-20 12:40;62
2024-04-20 12:50;54
2024-04-20 13:00;46
2024-04-20 13:10;37
2024-04-20 13:20;28
2024-04-20 13:30;19
2024-04-20 13:40;9
2024-04-20 13:50;0
2024-04-20 14:00;-10
2024-04-20 14:10;-20
2024-04-20 14:20;-29
2024-04-20 14:30;-39
2024-04-20 14:40;-48
2024-04-20 14:50;-58
2024-04-20 15:00;-67
2024-04-20 15:10;-77
2024-04-20 15:20;-86
2024-04-20 15:30;-95
2024-04-20 15:40;-104
2024-04-20 15:50;-112
2024-04-20 16:00;-120
2024-04-20 16:10;-126
2024-04-20 16:20;-132
2024-04-20 16:30;-136
2024-04-20 16:40;-139
2024-04-20 16:50;-140
2024-04-20 17:00;-139
2024-04-20 17:10;-138
2024-04-20 17:20;-134
2024-04-20 17:30;-129
2024-04-20 17:40;-122
2024-04-20 17:50;-114
2024-04-20 18:00;-105
2024-04-20 18:10;-94
2024-04-20 18:20;-81
2024-04-20 18:30;-68
2024-04-20 18:40;-54
2024-04-20 18:50;-40
2024-04-20 19:00;-26
2024-04-20 19:10;-12
2024-04-20 19:20;1
2024-04-20 19:30;14
2024-04-20 19:40;26
2024-04-20 19:50;38
2024-04-20 20:00;48
2024-04-20 20:10;58
2024-04-20 20:20;66
2024-04-20 20:30;74
2024-04-20 20:40;82
2024-04-20 20:50;89
2024-04-20 21:00;95
2024-04-20 21:10;101
2024-04-20 21:20;106
2024-04-20 21:30;111
2024-04-20 21:40;116
2024-04-20 21:50;120
2024-04-20 22:00;123
2024-04-20 22:10;127
2024-04-20 22:20;130
2024-04-20 22:30;132
2024-04-20 22:40;134
2024-04-20 22:50;136
2024-04-20 23:00;137
2024-04-20 23:10;137
2024-04-20 23:20;136
2024-04-20 23:30;134
2024-04-20 23:40;131
2024-04-20 23:50;127
2024-04-21 00:00;123
2024-04-21 00:10;117
2024-04-21 00:20;111
2024-04-21 00:30;104
2024-04-21 00:40;97
2024-04-21 00:50;89
2024-04-21 01:00;80
2024-04-21 01:10;71
2024-04-21 01:20;62
2024-04-21 01:30;52
2024-04-21 01:40;42
2024-04-21 01:50;31
2024-04-21 02:00;20
2024-04-21 02:10;9
2024-04-21 02:20;-2
2024-04-21 02:30;-14
2024-04-21 02:40;-26
2024-04-21 02:50;-37
2024-04-21 03:00;-49
2024-04-21 03:10;-61
2024-04-21 03:20;-73
2024-04-21 03:30;-85
2024-04-21 03:40;-96
2024-04-21 03:50;-108
2024-04-21 04:00;-119
2024-04-21 04:10;-129
2024-04-21 04:20;-138
2024-04-21 04:30;-147
2024-04-21 04:40;-154
2024-04-21 04:50;-160
2024-04-21 05:00;-165
2024-04-21 05:10;-168
2024-04-21 05:20;-169
2024-04-21 05:30;-169
2024-04-21 05:40;-168
2024-04-21 05:50;-164
2024-04-21 06:00;-158
2024-04-21 06:10;-151
2024-04-21 06:20;-142
2024-04-21 06:30;-130
2024-04-21 06:40;-118
2024-04-21 06:50;-104
2024-04-21 07:00;-89
2024-04-21 07:10;-74
2024-04-21 07:20;-59
2024-04-21 07:30;-44
2024-04-21 07:40;-30
2024-04-21 07:50;-16
2024-04-21 08:00;-4
2024-04-21 08:10;8
2024-04-21 08:20;18
2024-04-21 08:30;28
2024-04-21 08:40;37
2024-04-21 08:50;45
2024-04-21 09:00;52
2024-04-21 09:10;59
2024-04-21 09:20;66
2024-04-21 09:30;72
2024-04-21 09:40;78
2024-04-21 09:50;83
2024-04-21 10:00;88
2024-04-21 10:10;92
2024-04-21 10:20;96
2024-04-21 10:30;100
2024-04-21 10:40;104
2024-04-21 10:50;107
2024-04-21 11:00;110
2024-04-21 11:10;113
2024-04-21 11:20;115
2024-04-21 11:30;117
2024-04-21 11:40;118
2024-04-21 11:50;118
2024-04-21 12:00;117
2024-04-21 12:10;116
2024-04-21 12:20;113
2024-04-21 12:30;109
2024-04-21 12:40;104
2024-04-21 12:50;99
2024-04-21 13:00;92
2024-04-21 13:10;85
2024-04-21 13:20;78
2024-04-21 13:30;69
2024-04-21 13:40;61
2024-04-21 13:50;51
2024-04-21 14:00;42
2024-04-21 14:10;32
2024-04-21 14:20;22
2024-04-21 14:30;11
2024-04-21 14:40;1
2024-04-21 14:50;-10
2024-04-21 15:00;-20
2024-04-21 15:10;-31
2024-04-21 15:20;-41
2024-04-21 15:30;-52
2024-04-21 15:40;-63
2024-04-21 15:50;-74
2024-04-21 16:00;-85
2024-04-21 16:10;-96
2024-04-21 16:20;-106
2024-04-21 16:30;-116
2024-04-21 16:40;-126
2024-04-21 16:50;-134
2024-04-21 17:00;-142
2024-04-21 17:10;-148
2024-04-21 17:20;-153
2024-04-21 17:30;-156
2024-04-21 17:40;-157
2024-04-21 17:50;-157
2024-04-21 18:00;-154
2024-04-21 18:10;-149
2024-04-21 18:20;-142
2024-04-21 18:30;-134
2024-04-21 18:40;-123
2024-04-21 18:50;-110
2024-04-21 19:00;-96
2024-04-21 19:10;-81
2024-04-21 19:20;-65
2024-04-21 19:30;-49
2024-04-21 19:40;-33
2024-04-21 19:50;-17
2024-04-21 20:00;-2
2024-04-21 20:10;12
2024-04-21 20:20;25
2024-04-21 20:30;37
2024-04-21 20:40;48
2024-04-21 20:50;58
2024-04-21 21:00;67
2024-04-21 21:10;76
2024-04-21 21:20;83
2024-04-21 21:30;91
2024-04-21 21:40;97
2024-04-21 21:50;103
2024-04-21 22:00;109
2024-04-21 22:10;114
2024-04-21 22:20;119
2024-04-21 22:30;123
2024-04-21 22:40;127
2024-04-21 22:50;131
2024-04-21 23:00;135
2024-04-21 23:10;138
2024-04-21 23:20;140
2024-04-21 23:30;142
2024-04-21 23:40;143
2024-04-21 23:50;144
2024-04-22 00:00;143
2024-04-22 00:10;142
2024-04-22 00:20;139
2024-04-22 00:30;135
2024-04-22 00:40;131
2024-04-22 00:50;125
2024-04-22 01:00;119
2024-04-22 01:10;112
2024-04-22 01:20;104
2024-04-22 01:30;96
2024-04-22 01:40;87
2024-04-22 01:50;78
2024-04-22 02:00;68
2024-04-22 02:10;58
2024-04-22 02:20;47
2024-04-22 02:30;36
2024-04-22 02:40;25
2024-04-22 02:50;14
2024-04-22 03:00;2
2024-04-22 03:10;-10
2024-04-22 03:20;-22
2024-04-22 03:30;-34
2024-04-22 03:40;-46
2024-04-22 03:50;-58
2024-04-22 04:00;-71
2024-04-22 04:10;-84
2024-04-22 04:20;-96
2024-04-22 04:30;-108
2024-04-22 04:40;-120
2024-04-22 04:50;-131
2024-04-22 05:00;-142
2024-04-22 05:10;-151
2024-04-22 05:20;-160
2024-04-22 05:30;-167
2024-04-22 05:40;-173
2024-04-22 05:50;-177
2024-04-22 06:00;-180
2024-04-22 06:10;-180
2024-04-22 06:20;-178
2024-04-22 06:30;-174
2024-04-22 06:40;-168
2024-04-22 06:50;-159
2024-04-22 07:00;-148
2024-04-22 07:10;-135
2024-04-22 07:20;-121
2024-04-22 07:30;-105
2024-04-22 07:40;-88
2024-04-22 07:50;-71
2024-04-22 08:00;-54
2024-04-22 08:10;-38
2024-04-22 08:20;-23
2024-04-22 08:30;-9
2024-04-22 08:40;4
2024-04-22 08:50;16
2024-04-22 09:00;27
2024-04-22 09:10;37
2024-04-22 09:20;45
2024-04-22 09:30;54
2024-04-22 09:40;61
2024-04-22 09:50;68
2024-04-22 10:00;74
2024-04-22 10:10;80
2024-04-22 10:20;85
2024-04-22 10:30;91
2024-04-22 10:40;95
2024-04-22 10:50;100
2024-04-22 11:00;104
2024-04-22 11:10;109
2024-04-22 11:20;113
2024-04-22 11:30;116
2024-04-22 11:40;120
2024-04-22 11:50;123
2024-04-22 12:00;125
2024-04-22 12:10;127
2024-04-22 12:20;128
2024-04-22 12:30;128
2024-04-22 12:40;126
2024-04-22 12:50;124
2024-04-22 13:00;121
2024-04-22 13:10;117
2024-04-22 13:20;112
2024-04-22 13:30;106
2024-04-22 13:40;99
2024-04-22 13:50;91
2024-04-22 14:00;83
2024-04-22 14:10;74
2024-04-22 14:20;64
2024-04-22 14:30;54
2024-04-22 14:40;44
2024-04-22 14:50;33
2024-04-22 15:00;23
2024-04-22 15:10;12
2024-04-22 15:20;1
2024-04-22 15:30;-10
2024-04-22 15:40;-21
2024-04-22 15:50;-32
2024-04-22 16:00;-43
2024-04-22 16:10;-54
2024-04-22 16:20;-65